Theta_e
316 315 314 313 312 311 310 309 309 309 309 309 309 309 308 308 308 308 309 309 309 309 309 309 309 309 308 309 308 309 309 309 309 309 309 309 309 309 309 309 308 308 308 308 308 308 308 308 308 308 308 308 308 308 309 309 309 309 310 309 309 309 309 309 309 309 308 308 309 310 309 309 309 309 308 308 308 312 318 323 326 326 324 324 325
314 314 313 312 311 311 310 310 310 310 309 310 309 310 310 310 310 310 310 309 309 309 309 309 309 310 309 310 310 310 310 310 310 311 311 311 311 311 311 310 310 309 309 309 308 308 308 308 308 308 308 308 308 308 308 309 308 309 309 308 309 308 308 308 308 307 307 307 308 308 309 310 310 310 310 312 311 310 311 314 321 325 325 325 325
313 313 313 314 314 314 314 314 315 315 313 314 313 313 313 313 313 313 312 311 310 310 310 311 311 312 312 312 312 312 313 313 314 315 315 316 315 315 315 315 314 314 313 312 312 311 310 309 308 308 308 308 308 308 308 308 308 308 308 308 308 308 307 307 307 307 307 307 307 308 309 309 310 312 313 314 315 314 313 314 315 319 322 325 325
316 316 317 318 319 319 320 320 320 320 319 319 319 318 318 318 317 317 317 316 315 315 314 314 314 315 315 315 315 315 316 317 317 318 318 318 319 318 318 318 318 318 318 317 317 317 316 315 314 313 311 310 309 308 308 308 308 308 308 308 307 307 308 307 307 307 307 307 308 308 309 311 312 314 316 318 318 317 318 319 317 315 317 321 323
318 319 320 320 321 322 322 322 322 322 322 322 321 321 321 320 320 319 319 319 319 319 318 319 319 319 319 318 319 319 319 320 320 320 320 320 319 319 319 318 318 318 318 318 318 318 318 318 318 318 318 317 315 314 312 310 309 308 308 308 308 308 308 308 308 307 308 308 309 310 312 314 316 317 318 320 322 322 322 322 322 320 319 318 318
319 319 320 320 321 321 321 322 322 322 322 321 321 321 320 319 318 318 317 318 318 318 318 319 319 319 320 320 320 320 319 319 319 318 318 318 318 317 317 317 318 318 318 318 319 318 318 318 318 318 319 319 319 319 318 317 315 314 312 311 310 310 311 310 311 311 312 313 314 315 316 318 319 320 321 322 323 324 324 323 324 324 323 321 319
319 319 320 320 320 320 321 321 321 321 321 321 320 319 317 316 316 315 314 314 314 314 315 315 316 316 316 317 317 317 317 316 316 316 316 316 316 317 318 319 319 320 320 320 321 321 320 320 319 319 319 318 319 319 319 319 319 319 319 318 318 318 318 318 318 318 319 319 319 319 319 320 320 322 323 324 324 324 324 324 325 325 325 325 323
320 320 320 320 320 321 321 321 321 321 321 320 319 317 316 314 314 313 313 312 312 312 313 313 313 314 314 314 314 314 315 315 315 315 315 316 318 319 320 321 321 321 321 321 321 321 321 321 321 321 320 320 319 319 319 318 318 319 319 319 320 320 320 320 320 320 320 319 319 319 319 319 319 321 323 324 325 324 324 324 325 325 325 325 325
322 322 322 322 322 322 322 322 322 321 321 320 318 317 316 316 314 314 314 313 313 313 313 313 313 313 314 314 314 314 315 315 316 316 317 319 320 321 322 322 322 322 321 321 321 321 320 321 320 321 320 321 320 320 320 319 319 319 319 319 319 319 318 319 319 318 318 318 319 319 319 319 319 320 322 323 324 323 324 324 325 324 324 324 324
324 324 323 323 323 323 322 322 322 321 321 319 318 318 317 317 316 315 316 316 315 315 315 316 315 315 315 316 316 316 316 317 317 318 319 321 322 322 323 322 322 322 321 321 321 321 320 320 320 320 320 320 320 320 320 320 320 320 320 320 319 319 319 319 319 319 319 320 320 320 320 320 320 321 321 321 320 320 321 322 323 324 325 325 324
323 323 323 322 322 322 322 321 321 321 320 320 319 319 319 319 319 318 318 318 318 318 318 319 319 318 318 318 318 318 318 319 319 320 321 323 324 323 322 322 321 322 322 322 321 321 321 321 320 320 320 320 320 320 320 320 320 320 321 321 321 321 321 321 320 320 321 321 321 321 321 321 321 321 320 319 317 317 319 319 319 320 322 324 325
320 320 320 320 320 319 320 319 320 320 320 320 320 320 320 321 321 321 321 321 321 321 321 321 321 321 320 320 320 320 320 320 321 322 323 324 324 324 323 322 322 322 322 322 322 322 322 322 321 320 320 320 321 320 320 320 320 320 320 321 322 322 322 322 322 322 322 322 322 322 322 321 321 320 320 319 319 318 319 319 318 318 318 319 321
319 319 319 319 319 319 319 319 319 319 320 320 320 321 321 321 322 322 322 322 322 322 322 323 323 322 322 322 321 322 322 321 322 322 323 323 324 324 324 323 322 322 323 323 323 322 323 323 322 321 321 320 321 321 320 320 320 320 319 320 322 323 323 323 322 322 322 322 322 322 321 321 321 320 320 320 320 320 319 319 319 319 320 320 320
323 323 323 322 322 322 321 321 320 320 320 320 320 321 321 321 322 322 322 322 322 323 324 324 324 324 324 324 323 323 324 323 324 323 323 323 323 323 323 324 324 323 323 323 323 323 323 323 323 322 322 321 321 321 320 320 320 320 320 319 320 321 322 323 323 322 322 322 322 322 321 321 320 320 319 320 319 319 319 319 320 320 320 321 321
326 326 326 326 326 326 325 324 324 323 323 323 322 322 322 322 323 323 323 324 323 323 324 324 325 325 326 326 326 326 327 326 326 326 325 325 324 324 323 323 324 324 324 324 323 323 323 323 323 323 323 322 321 321 321 321 321 320 320 319 319 320 321 322 323 323 322 322 322 322 321 321 320 319 319 319 319 319 320 320 320 320 321 320 321
325 325 326 326 327 327 327 327 327 326 326 326 325 325 325 325 325 325 325 326 325 325 325 325 325 327 327 327 327 326 327 327 325 325 325 325 325 324 325 324 323 323 323 323 323 323 323 323 323 323 323 323 322 321 321 320 321 321 321 320 319 320 321 322 322 322 322 322 322 322 321 321 319 318 318 318 319 320 320 321 321 322 322 322 322
325 325 325 325 326 326 327 327 327 327 327 327 327 327 326 326 326 326 327 327 327 327 326 326 326 327 327 327 327 326 326 326 326 325 322 323 324 323 324 324 324 323 323 323 323 323 323 323 323 323 323 323 323 322 322 321 321 321 321 321 320 320 320 321 322 322 322 322 322 322 322 320 319 317 317 317 319 319 320 321 321 321 322 322 322
326 326 326 326 326 325 326 326 326 326 326 326 327 327 327 327 327 327 327 327 328 328 327 326 327 327 327 327 327 327 327 327 327 327 324 321 321 321 322 322 323 324 324 324 323 323 322 322 322 323 323 323 323 322 322 322 321 321 321 321 321 321 321 321 321 322 322 322 322 322 322 320 319 317 316 317 318 318 319 320 321 321 321 322 322
327 327 328 327 326 326 326 326 326 326 326 326 326 326 326 326 327 327 327 327 328 328 327 327 327 327 327 327 327 327 327 327 327 326 326 325 321 321 321 320 321 322 323 324 324 324 323 323 323 323 323 323 323 323 323 323 323 322 322 321 321 321 322 321 321 322 322 322 322 322 322 320 318 317 317 317 317 318 320 320 321 321 321 321 322
328 328 328 328 327 326 326 326 326 326 326 326 326 325 326 326 326 327 327 327 327 328 328 328 328 327 327 327 327 327 327 327 327 326 325 325 325 324 322 321 322 321 320 321 322 323 323 323 323 323 324 323 324 324 324 324 324 324 323 322 322 322 322 322 321 322 322 322 322 322 322 320 318 317 317 317 317 318 320 321 321 321 321 322 321
328 329 329 328 327 326 326 327 326 326 326 326 326 326 326 326 326 327 327 327 327 328 328 328 328 328 328 328 328 328 328 327 326 325 325 324 325 325 324 324 324 322 321 320 320 321 321 322 322 322 323 323 323 324 324 325 325 325 324 322 322 322 322 322 322 321 322 322 322 322 322 320 319 318 318 317 318 318 319 320 321 321 321 321 321
328 328 328 327 327 326 326 327 326 326 326 326 326 326 326 326 326 327 327 328 328 328 328 328 328 328 328 328 328 328 327 327 326 326 325 325 324 325 325 325 324 324 323 323 321 321 320 320 321 320 320 321 321 322 324 325 325 325 324 323 322 321 321 322 322 322 322 322 322 322 321 320 319 318 318 318 317 318 320 320 321 321 320 320 320
325 325 325 325 325 326 326 326 326 326 326 326 326 326 326 327 327 327 328 328 328 328 328 328 328 328 328 328 328 328 327 327 326 326 325 325 325 324 325 325 325 325 324 324 323 324 323 322 321 319 320 320 320 321 324 325 325 325 325 323 322 321 321 322 323 322 322 322 322 322 321 320 319 318 318 317 317 318 319 320 320 320 320 319 319
323 323 324 324 325 326 326 326 326 326 326 326 326 326 327 327 327 328 328 328 328 328 328 329 328 328 328 328 328 328 328 327 327 326 326 325 325 325 325 325 325 325 324 324 324 324 324 323 321 320 320 320 319 321 324 325 325 325 324 322 320 319 319 320 322 322 322 322 322 321 321 320 319 318 318 318 318 319 319 320 320 320 319 319 319
323 323 324 324 325 325 325 325 325 325 325 326 326 326 326 327 327 328 328 328 328 328 328 328 328 328 328 328 328 328 328 327 327 326 326 326 325 325 325 325 325 325 325 324 324 324 323 322 321 322 321 320 321 322 324 324 325 324 324 322 319 318 318 319 321 322 322 322 321 321 320 319 319 318 319 319 318 319 319 319 319 319 319 319 318
324 324 324 324 324 324 324 324 324 324 324 324 324 325 325 326 326 327 327 327 327 327 327 327 327 328 328 328 327 327 327 327 326 326 326 326 326 325 325 325 325 325 325 325 324 324 324 321 321 322 321 321 321 323 323 324 324 324 324 322 320 318 319 320 321 322 323 322 321 320 318 318 318 318 319 319 319 319 320 319 319 319 318 317 317
323 323 323 323 323 323 323 322 322 322 322 322 322 323 323 324 324 325 325 325 325 325 325 326 326 326 326 326 326 326 326 326 326 326 325 326 326 326 326 326 325 325 325 325 325 324 324 323 323 322 321 321 322 322 323 323 324 324 324 323 321 319 320 321 321 322 322 321 319 318 317 317 317 317 319 319 318 319 320 319 319 318 317 316 317
322 322 321 321 320 321 320 320 320 320 320 320 321 321 321 321 322 322 322 322 323 323 323 324 324 324 324 324 325 325 325 325 325 325 325 325 326 326 326 326 325 325 325 325 325 324 324 324 324 323 322 322 322 322 323 323 323 323 323 323 322 320 319 320 321 320 319 318 317 316 315 316 316 317 318 318 318 319 320 319 319 318 317 317 317
319 319 318 318 318 318 318 318 318 318 318 318 318 318 318 318 319 319 319 319 320 320 321 322 322 322 322 323 324 324 324 324 324 324 325 325 325 325 326 326 325 325 325 325 325 325 324 324 324 324 323 322 323 323 323 323 322 323 322 322 322 321 319 319 321 320 318 317 315 315 315 316 316 317 318 318 319 319 320 319 319 318 317 317 315
316 316 316 315 316 315 315 315 315 315 315 315 315 316 316 316 316 317 317 317 318 318 319 319 319 320 321 321 322 322 322 323 323 323 324 324 325 325 325 325 326 326 325 325 325 325 324 324 324 324 324 323 323 322 322 322 322 322 322 321 320 320 318 318 320 319 318 316 316 316 316 317 317 318 318 318 319 319 320 319 319 318 318 317 315
314 314 314 313 313 313 313 312 312 313 313 313 314 314 314 315 315 315 315 315 316 316 317 317 317 318 319 319 319 320 320 321 322 323 323 324 324 324 324 325 325 325 326 326 325 325 324 324 324 324 324 323 323 323 322 322 322 322 322 321 320 320 319 318 318 319 318 318 318 318 318 318 318 318 319 318 318 319 319 319 319 319 318 317 316
313 313 313 312 312 311 311 311 312 312 312 312 313 313 314 314 314 314 314 314 315 315 315 315 315 316 317 317 318 318 319 320 321 321 322 322 323 324 324 324 324 325 325 326 325 325 324 324 324 324 324 323 323 323 323 323 322 322 322 321 320 319 319 318 318 318 319 319 319 319 318 318 318 318 318 318 318 319 319 319 319 318 317 317 317
312 312 312 311 311 310 311 311 311 311 311 312 312 312 312 312 312 313 313 313 314 314 314 314 314 315 315 315 316 315 317 318 319 320 321 321 322 323 323 324 324 324 325 326 326 325 324 324 324 324 324 324 323 323 323 323 323 322 322 321 321 320 319 319 318 317 319 319 319 319 319 318 318 317 318 318 318 318 319 319 318 318 317 317 316
312 311 311 311 311 310 310 311 311 311 311 311 311 311 311 311 311 311 312 312 313 313 313 314 314 314 314 313 313 313 315 317 318 319 320 320 321 322 322 323 324 324 324 325 325 325 324 323 324 324 324 324 323 323 323 323 322 322 322 321 321 320 319 319 318 317 318 320 319 319 319 318 318 317 317 317 317 317 317 317 318 318 318 317 316
311 311 311 310 310 310 310 311 311 311 312 311 312 311 311 311 310 310 311 311 312 313 313 313 313 313 312 312 312 312 312 314 314 316 317 318 319 321 321 322 323 323 324 324 325 325 325 324 324 324 324 324 323 323 323 323 322 322 322 322 321 321 320 320 319 317 318 319 319 319 319 319 318 318 317 316 316 316 316 317 317 318 318 318 316
310 310 310 309 309 309 309 309 310 311 311 311 311 311 311 310 310 310 310 311 312 312 312 312 312 312 312 312 312 312 312 312 312 312 313 314 316 318 319 320 321 321 321 323 324 324 324 324 324 323 323 323 323 323 323 324 324 323 323 322 321 321 320 320 319 317 316 318 319 319 319 319 318 318 318 317 316 315 316 316 317 317 317 318 317
310 309 309 309 308 308 308 308 308 308 309 309 309 309 309 310 310 310 310 311 311 312 312 312 312 312 312 312 312 312 312 312 312 312 312 312 312 314 315 315 317 319 320 321 323 324 324 325 324 323 324 324 324 324 324 324 324 323 323 322 322 322 321 321 320 317 316 317 318 318 319 320 319 319 319 318 318 317 317 317 317 317 317 317 317
310 309 309 309 308 308 308 307 307 306 306 306 306 307 308 309 309 310 310 311 311 312 312 312 312 312 312 312 312 312 312 312 312 311 312 312 311 312 312 312 314 317 319 320 321 323 323 323 323 323 323 324 324 324 324 324 324 324 324 323 323 322 322 321 320 318 317 317 318 317 318 319 319 319 319 319 319 319 318 318 318 318 317 316 316
310 309 309 308 308 307 307 306 306 306 305 305 305 306 307 307 308 309 309 310 310 310 310 311 311 311 311 311 311 311 311 311 311 311 311 311 311 311 312 312 313 315 317 318 320 321 322 323 322 322 323 324 323 323 323 323 324 324 324 324 323 322 322 321 320 319 317 317 319 318 317 318 318 319 319 319 319 319 319 318 318 318 317 316 316
308 308 308 307 307 306 306 306 305 305 305 305 305 305 306 307 307 308 309 309 309 310 310 310 310 310 310 310 310 310 311 311 311 311 311 311 311 311 311 313 314 315 317 318 319 320 321 321 321 321 321 322 322 322 323 323 323 323 323 323 323 322 321 320 319 319 317 317 319 319 317 318 318 318 317 318 319 319 319 319 319 318 318 317 316
306 306 306 306 306 305 305 305 305 305 305 305 305 305 305 306 307 307 308 309 309 309 309 309 309 310 310 310 310 310 310 310 310 311 311 311 311 311 311 311 313 313 314 315 317 318 319 320 321 321 322 323 323 323 323 323 322 322 322 323 322 321 321 320 319 319 318 318 319 318 316 317 319 318 317 317 317 317 319 319 319 318 318 317 316
305 305 305 304 304 304 304 304 304 304 304 305 305 305 306 306 306 307 308 308 309 309 309 309 309 309 309 309 309 309 309 309 309 310 310 310 311 311 311 311 312 311 311 312 313 315 318 320 319 320 321 321 321 321 322 321 321 322 322 322 321 321 321 321 319 319 319 319 319 317 316 316 318 318 318 317 316 316 318 319 319 318 317 316 315
304 304 304 303 303 303 304 304 304 304 304 305 305 306 306 307 307 307 308 308 309 309 309 309 309 309 309 309 308 309 308 308 308 309 309 309 310 310 311 311 311 311 310 310 311 313 316 318 320 320 321 320 320 320 320 321 321 322 321 321 321 321 321 321 321 320 319 319 318 316 315 316 318 319 318 317 316 316 317 318 319 318 316 315 316
303 303 303 303 303 303 303 303 303 303 304 304 305 306 306 307 307 308 308 308 308 309 309 308 308 308 308 308 308 308 308 308 308 308 308 309 309 309 310 310 311 311 311 311 311 311 312 313 315 317 319 320 320 320 320 320 321 320 320 321 321 321 321 321 321 320 319 318 316 316 316 316 318 320 318 317 317 317 316 317 318 317 316 316 317
303 303 303 303 303 303 303 303 303 303 303 304 304 305 306 307 307 307 308 308 308 308 308 308 308 308 308 308 308 308 308 308 308 308 308 308 309 309 309 310 310 310 311 311 311 311 311 311 311 311 313 315 315 316 317 318 319 319 320 320 321 321 321 321 320 319 319 318 316 316 318 317 318 319 317 316 317 317 315 316 316 316 316 317 317
302 302 302 302 302 303 302 303 303 303 303 303 303 304 305 306 306 307 307 308 308 308 308 308 308 308 308 308 308 308 308 308 308 308 308 308 308 308 309 309 309 309 310 310 311 311 311 310 310 310 311 311 311 311 312 314 317 319 320 320 320 320 320 319 319 318 318 317 316 317 318 319 318 318 317 316 316 315 315 315 317 317 317 317 317
301 301 301 301 302 302 302 302 302 303 303 303 303 304 304 304 305 306 306 307 307 307 307 307 307 307 307 307 307 307 308 307 307 307 307 307 307 308 308 308 308 309 309 310 310 310 310 309 309 310 311 311 311 310 310 311 313 315 317 318 319 319 319 318 318 318 318 318 318 317 317 318 319 319 318 316 315 315 315 316 317 317 317 317 317
300 300 300 301 301 301 301 302 302 302 302 303 303 303 304 304 304 305 305 305 306 306 306 306 306 306 306 306 307 307 307 307 307 307 307 307 307 307 307 307 308 308 308 308 309 310 309 309 310 310 310 311 311 311 311 311 311 312 313 315 316 316 317 318 318 319 319 319 319 318 318 318 318 319 318 316 315 316 315 315 316 316 316 316 316
299 299 299 300 300 301 301 301 301 302 302 302 303 303 303 304 304 304 305 305 305 305 305 306 306 306 306 306 306 306 306 306 306 306 306 306 306 306 307 307 307 308 307 307 309 309 309 310 309 309 309 310 311 311 311 312 312 311 312 313 313 313 315 316 317 317 318 318 318 318 318 318 318 318 317 315 316 316 316 315 316 316 316 316 316
298 298 298 299 300 300 300 300 300 301 301 302 302 302 303 303 303 303 304 304 304 305 305 305 305 305 305 305 306 306 306 306 306 306 305 304 303 304 304 304 306 307 307 307 308 308 309 309 309 309 309 309 309 310 310 311 312 312 313 314 314 315 315 315 315 316 316 317 318 318 317 317 317 317 316 315 316 316 316 315 315 315 315 315 315
296 297 297 298 299 299 299 299 298 299 299 300 300 301 301 301 302 302 302 303 303 304 304 304 304 304 305 305 305 305 305 305 305 305 304 302 301 300 300 300 302 306 307 307 307 307 308 308 308 308 308 309 309 308 308 310 311 313 314 314 315 316 316 316 315 315 315 316 317 317 315 315 316 316 315 315 315 315 314 314 313 313 313 313 312
Wind_Speed
20 20 21 21 21 21 21 21 21 21 21 22 22 23 24 25 25 25 24 24 23 23 23 23 23 23 23 23 22 22 22 23 23 23 23 23 22 22 21 22 22 23 24 24 25 25 26 27 28 29 29 30 30 30 31 31 32 32 32 33 33 33 33 33 33 32 32 32 31 30 30 29 28 28 28 29 29 28 27 26 26 27 27 27 26
20 19 20 21 20 21 21 21 21 21 21 21 22 23 23 23 23 24 23 23 23 22 23 23 23 23 23 23 23 22 23 23 23 24 24 23 23 23 23 22 23 23 24 24 25 25 26 27 28 28 29 30 30 31 31 32 33 33 34 34 34 34 34 34 34 33 33 33 32 31 30 29 29 28 28 27 28 28 28 28 28 27 27 28 28
18 18 19 19 19 19 19 20 20 20 21 21 21 22 22 22 23 23 23 24 23 23 24 25 24 24 24 24 24 24 24 25 25 25 25 25 25 25 24 24 24 24 25 25 26 26 26 27 28 28 29 30 31 31 32 32 33 33 34 34 34 34 34 34 34 33 33 33 33 32 32 31 30 29 29 29 28 27 27 28 29 30 29 28 29
18 18 18 18 19 19 19 20 20 20 20 20 20 22 23 24 24 24 24 25 25 25 25 26 26 25 25 25 26 26 26 26 27 27 27 27 27 27 26 26 25 25 26 26 26 27 27 27 28 28 28 29 30 31 32 33 33 33 34 34 34 33 33 33 33 33 33 33 33 33 33 32 31 31 30 30 30 29 27 26 27 29 31 31 31
18 19 19 20 20 20 20 21 20 20 20 20 21 23 24 25 25 25 26 27 27 26 26 27 27 27 26 26 27 27 27 27 28 28 28 28 28 28 27 27 26 26 26 26 26 27 27 27 27 28 28 28 29 30 31 32 33 34 34 34 34 33 33 33 33 33 33 33 33 33 33 32 32 31 31 30 31 30 30 29 28 27 27 30 32
20 20 21 22 22 22 22 22 21 21 21 22 23 24 25 26 26 26 27 28 29 28 27 28 28 28 27 27 27 27 28 28 28 28 28 28 28 28 27 26 26 26 25 25 25 25 25 26 26 27 27 28 28 29 30 31 32 33 34 34 34 34 34 33 33 33 33 34 34 33 33 32 32 31 31 30 30 30 31 31 31 29 27 26 28
22 22 23 24 24 24 24 23 22 22 23 23 24 25 25 26 25 26 27 27 28 28 28 28 28 28 28 28 28 27 28 28 28 29 28 28 28 28 28 27 27 26 25 25 25 25 25 25 25 26 27 27 27 28 28 30 31 32 33 34 35 35 34 34 33 34 34 34 34 34 33 33 32 31 31 30 30 30 30 30 31 31 30 28 26
23 24 25 26 26 26 25 24 23 23 24 24 25 25 25 25 25 25 26 26 27 27 28 28 28 28 28 28 28 28 28 29 29 29 29 29 29 29 28 28 28 27 26 26 25 25 25 25 25 26 27 27 27 28 28 29 30 31 32 33 34 34 34 34 34 34 33 33 33 33 33 32 32 31 31 31 31 30 30 30 31 31 31 30 28
25 26 27 27 27 27 26 25 24 25 25 25 26 25 25 26 25 25 26 27 27 27 28 28 28 28 28 29 29 29 29 29 29 30 30 30 30 30 29 29 28 28 27 26 25 26 26 25 26 26 27 27 28 28 28 29 30 31 32 32 33 34 34 34 34 34 33 33 33 33 32 32 32 32 31 31 31 31 31 30 30 30 30 30 29
26 27 27 28 28 28 27 26 26 26 27 27 27 26 26 27 27 26 27 28 28 29 29 28 29 30 30 30 29 30 30 30 31 31 31 31 31 31 30 30 29 28 26 25 25 25 25 25 25 25 26 26 27 27 27 28 29 30 31 32 33 34 35 35 35 34 34 33 33 32 32 32 32 32 32 32 31 31 29 29 29 29 29 29 28
27 28 28 29 29 29 28 28 28 28 28 28 28 28 28 28 28 28 28 30 31 30 31 31 31 32 32 32 32 32 32 32 33 33 33 32 32 32 31 30 30 29 27 26 26 25 25 24 25 25 24 24 25 25 25 25 26 28 29 31 32 33 34 34 34 32 31 31 30 30 31 31 31 32 32 31 30 29 28 28 28 28 27 27 27
28 29 29 29 30 30 29 29 29 29 30 30 29 29 29 30 30 30 31 32 32 32 32 32 33 34 35 35 34 34 34 35 35 34 34 34 33 32 32 31 31 29 27 26 26 26 24 24 25 25 25 25 25 25 24 24 24 25 27 29 30 31 31 31 30 29 28 28 28 29 30 31 31 31 31 30 30 30 29 29 28 27 27 27 27
29 29 29 30 31 31 30 30 31 31 31 31 31 31 31 32 32 32 33 33 34 33 33 34 35 36 36 36 36 35 36 36 36 35 35 35 34 34 33 33 32 31 29 29 28 27 25 25 25 25 26 27 27 26 25 25 25 25 26 27 28 28 29 28 27 27 27 28 29 29 30 31 31 31 31 31 30 30 29 29 28 28 28 28 28
28 29 30 31 32 32 32 32 32 33 33 33 33 33 34 34 34 35 35 35 36 35 35 35 36 37 38 39 39 37 36 35 35 35 34 34 34 33 33 32 32 32 31 31 30 28 26 26 26 26 27 28 28 27 27 27 26 25 26 26 27 28 28 28 28 29 29 30 31 30 30 30 31 32 32 32 31 30 29 28 28 28 29 28 27
27 29 30 31 32 32 33 33 33 33 34 34 35 35 35 35 35 36 36 37 37 37 37 36 35 36 35 36 37 37 37 36 34 32 32 32 32 31 31 31 31 31 31 31 31 30 28 28 28 27 28 29 29 28 28 28 28 27 27 27 27 28 29 29 30 31 31 32 32 31 31 31 31 32 33 32 32 31 30 30 29 29 28 27 26
27 29 30 31 32 32 32 33 33 33 33 34 35 35 35 35 35 36 36 37 38 37 37 36 35 34 30 29 30 30 32 36 37 35 33 33 34 33 33 32 31 30 31 31 31 31 30 30 29 29 31 31 30 30 29 29 29 29 29 29 29 29 30 30 31 32 32 32 32 32 32 32 32 33 33 33 32 31 30 30 28 27 26 25 24
28 29 30 31 32 32 32 32 32 32 33 33 33 33 34 35 35 35 35 36 37 36 36 35 35 35 32 31 28 23 26 34 39 41 39 37 36 36 36 35 35 34 34 34 34 33 33 32 32 33 32 32 32 32 32 31 31 31 31 31 31 31 31 31 32 33 33 33 33 33 32 32 33 33 32 31 31 30 29 28 26 25 25 23 22
31 31 31 31 32 32 32 32 31 31 31 32 32 32 33 33 33 34 34 35 35 36 36 35 35 36 36 36 33 30 33 37 37 41 45 43 40 38 39 39 39 39 38 38 38 37 36 36 35 35 35 35 36 36 35 33 32 32 32 32 32 33 33 33 33 33 34 34 33 33 32 33 33 33 31 30 30 29 27 26 25 24 23 23 22
33 34 34 33 33 33 33 33 33 32 32 32 32 32 31 31 31 33 34 33 35 37 36 34 36 38 37 37 38 37 39 38 37 38 43 48 48 44 42 42 41 42 41 40 40 40 39 38 38 38 38 38 38 37 36 34 33 33 33 33 33 34 34 34 34 34 35 34 34 33 33 33 33 32 30 29 28 27 25 24 23 23 22 22 23
36 36 36 35 34 34 34 34 34 33 33 33 32 31 31 31 31 33 34 34 36 37 36 34 37 38 37 37 39 39 39 38 39 37 38 46 53 52 49 46 45 44 43 42 41 40 39 38 38 38 38 38 38 38 38 37 36 35 35 34 34 34 35 35 35 35 35 35 34 33 33 33 33 32 30 29 27 26 24 24 23 23 22 22 22
37 37 37 37 36 35 34 34 34 32 32 33 32 31 31 32 32 32 33 34 35 36 37 36 36 37 38 39 39 39 40 39 38 38 38 43 50 53 52 50 49 48 44 42 42 41 41 40 39 38 37 38 37 37 38 38 37 36 35 34 33 34 35 36 36 36 35 35 34 34 33 33 32 32 30 28 27 25 24 24 24 24 24 23 22
36 36 37 36 36 35 33 33 32 31 31 32 31 31 31 31 31 31 33 34 34 35 37 36 36 37 37 39 40 40 40 39 38 39 39 40 44 48 49 50 53 53 49 45 44 42 41 40 40 39 38 38 37 36 36 36 36 35 34 33 32 33 34 35 36 35 35 35 34 34 33 33 32 32 31 28 27 26 24 24 25 25 24 24 23
34 34 34 34 33 33 31 30 30 30 30 31 31 30 30 29 29 31 32 33 34 34 36 37 36 37 37 38 41 41 40 40 40 39 39 39 42 46 47 47 51 53 51 48 48 45 43 40 39 38 37 37 35 34 34 35 34 33 32 31 31 32 32 33 34 34 34 34 33 33 33 32 32 32 31 28 26 25 24 25 25 24 23 23 22
32 32 32 31 31 30 29 29 29 30 30 30 30 29 29 29 29 30 31 32 33 34 35 37 36 37 37 38 39 40 41 41 41 40 41 41 42 46 47 45 48 52 50 48 49 48 46 43 39 37 35 33 32 32 33 34 32 30 29 29 29 30 31 32 33 33 32 32 32 33 33 32 32 32 31 28 24 24 24 24 25 24 24 23 22
31 31 30 28 28 28 28 28 29 29 30 30 30 29 29 29 30 30 31 31 32 33 34 35 36 37 37 38 38 40 41 41 40 41 42 42 43 46 47 44 46 50 49 48 48 48 47 44 42 40 37 33 31 31 32 32 30 27 25 26 26 26 28 30 31 31 30 31 31 32 33 32 33 33 31 27 24 23 24 24 25 26 25 24 24
29 29 27 26 27 28 28 29 29 29 30 30 30 29 29 30 30 30 31 31 31 32 34 34 35 36 37 38 39 40 40 40 40 41 41 42 43 45 46 45 46 48 47 47 47 47 47 45 43 42 40 35 33 32 32 31 29 26 25 26 25 24 25 28 29 30 29 30 31 32 32 32 33 33 31 27 24 23 25 25 26 26 25 25 25
26 26 26 26 27 28 28 28 28 28 29 29 29 29 29 29 30 30 31 31 31 32 33 34 35 36 36 37 38 39 40 39 40 41 41 42 43 43 43 45 45 46 47 45 44 45 47 46 44 43 40 38 36 34 33 33 31 29 28 28 26 23 23 24 26 28 29 29 30 31 32 33 34 34 31 27 25 25 26 27 27 26 24 23 23
25 25 26 26 26 27 27 27 27 27 28 28 28 28 28 29 29 30 30 30 31 32 33 33 34 35 35 36 37 39 39 38 39 40 41 41 43 42 43 43 43 45 45 44 44 45 45 45 44 43 41 40 38 36 35 36 34 33 33 32 29 25 23 24 25 26 27 28 29 30 31 32 34 34 32 28 25 26 27 28 28 26 24 24 24
25 25 25 25 25 25 25 25 25 25 25 25 26 26 27 28 29 29 30 30 31 32 32 33 33 34 34 35 36 38 38 37 38 39 40 41 41 42 42 42 42 44 43 42 46 47 45 44 44 43 43 42 41 40 39 39 38 36 36 36 32 26 23 24 25 26 26 27 28 29 30 32 33 34 32 28 25 26 28 28 28 27 26 26 26
22 22 21 21 21 21 21 21 21 21 22 22 23 23 24 25 26 27 28 28 30 31 31 32 33 33 34 34 35 37 37 37 38 38 39 39 40 40 41 42 42 44 44 44 49 50 45 45 45 43 44 45 44 44 42 41 40 39 38 37 33 27 23 23 25 24 24 26 27 28 29 30 31 32 31 27 25 26 28 28 28 26 26 26 26
17 17 17 17 18 19 19 20 20 20 21 21 21 22 22 23 24 25 26 26 28 30 30 31 32 32 33 34 34 35 35 36 37 37 38 38 39 40 40 41 41 43 44 44 50 53 47 45 47 45 45 46 45 44 44 43 41 40 40 38 36 31 25 23 24 25 25 25 26 27 28 29 29 30 29 27 25 27 28 28 27 26 26 26 25
16 17 17 18 19 20 20 21 21 21 21 21 21 21 22 23 24 24 25 25 26 29 29 29 30 30 32 33 34 34 34 34 35 36 37 37 38 39 39 41 41 42 44 44 49 55 52 48 48 48 46 45 45 45 44 44 42 41 40 39 37 35 31 26 25 27 28 27 26 27 28 28 28 28 28 27 26 27 28 28 28 27 26 26 26
19 20 20 20 21 22 22 22 22 22 22 21 21 22 23 24 24 25 25 26 27 28 28 29 29 29 30 31 32 33 32 33 34 35 36 36 37 38 39 40 41 41 43 44 47 53 55 51 48 48 46 45 46 46 44 44 43 41 40 39 37 37 35 30 26 27 30 29 28 27 28 29 28 28 28 28 28 28 29 29 28 26 26 27 28
21 21 22 22 22 23 23 23 22 22 22 22 22 23 24 25 25 26 26 27 28 29 29 29 29 28 28 29 31 31 29 30 32 32 34 35 36 37 38 39 41 41 41 42 45 49 54 53 49 48 47 46 46 46 44 43 43 42 41 40 39 38 37 35 32 28 28 30 29 28 29 29 29 29 29 29 29 30 29 28 26 25 25 26 27
23 23 23 23 23 23 23 23 23 23 23 23 23 24 26 27 27 27 27 27 27 28 28 29 29 27 28 29 30 29 28 29 31 31 31 33 33 35 37 38 39 41 40 41 43 46 51 53 51 48 47 47 47 46 45 44 43 42 42 41 40 39 38 38 37 31 27 29 30 30 30 30 30 30 30 29 28 29 28 26 26 26 26 26 27
25 25 24 24 24 23 24 23 24 25 25 26 27 27 28 28 28 28 27 26 27 27 27 28 27 27 28 29 30 29 28 29 31 31 31 31 32 33 35 36 37 39 40 40 42 44 47 51 52 49 48 48 48 46 46 45 44 43 44 43 42 41 40 40 40 35 27 27 30 31 32 32 32 31 29 28 27 28 28 27 28 29 29 28 28
25 25 24 24 24 24 25 25 25 26 27 28 28 28 27 27 27 28 27 27 27 28 28 28 28 28 29 30 31 29 29 30 32 32 31 32 32 32 34 35 35 37 38 39 41 42 44 49 52 51 48 48 48 48 46 45 44 44 44 44 43 43 42 42 42 38 29 25 27 30 34 36 35 34 32 31 30 29 30 30 31 32 32 31 31
26 25 25 25 26 26 26 26 26 26 27 28 28 27 27 27 27 28 29 29 30 30 31 31 31 32 32 33 33 32 32 33 34 34 33 33 33 34 34 35 35 34 36 38 39 41 43 46 50 51 50 49 48 48 47 46 46 46 45 45 45 44 43 43 44 42 34 27 26 27 31 36 39 38 37 35 35 33 33 33 34 35 35 34 33
27 27 28 28 28 27 27 26 26 26 26 27 27 27 27 27 28 29 30 31 32 32 33 34 34 34 35 35 35 35 34 34 35 35 34 34 34 35 35 35 34 34 36 37 38 39 42 44 47 48 49 48 47 48 48 47 46 45 44 44 44 44 43 43 44 42 37 32 29 28 30 33 37 40 40 39 38 37 37 38 38 38 37 35 35
27 27 28 29 29 29 29 28 27 27 27 27 27 27 28 28 29 30 31 32 33 34 34 34 34 34 34 35 35 35 34 34 34 34 34 34 34 36 36 35 34 34 35 37 38 39 41 43 45 46 47 47 47 48 47 46 44 45 45 43 44 47 46 44 45 42 38 34 32 32 33 34 35 38 40 41 41 41 41 41 40 39 39 37 37
25 26 27 27 28 29 29 29 29 29 29 29 28 28 29 29 30 31 32 32 33 34 34 34 34 34 33 34 34 34 34 34 34 34 34 34 34 35 36 35 34 35 35 37 38 39 40 42 43 45 46 47 48 48 46 47 47 47 46 43 45 48 46 44 46 44 39 35 34 35 36 36 36 36 37 40 42 44 44 44 43 42 40 38 37
24 25 25 26 27 28 28 29 29 29 30 30 30 30 30 31 31 32 33 33 34 35 36 36 35 34 34 33 33 33 33 33 33 33 33 33 33 34 35 35 34 35 35 37 38 39 40 42 44 44 45 47 49 48 47 49 49 48 46 46 47 48 46 45 47 45 40 35 35 39 40 36 37 39 39 40 42 43 45 46 46 42 38 37 36
24 24 25 25 26 27 28 29 30 31 32 32 32 32 32 32 32 33 34 34 35 36 37 37 37 36 35 34 34 33 33 33 34 34 34 34 34 34 35 35 34 34 35 36 38 39 39 42 44 44 45 48 50 49 48 49 48 47 47 47 47 47 45 45 46 45 41 35 35 40 40 36 40 43 41 40 41 42 45 47 45 40 37 37 36
25 25 25 25 26 27 28 29 30 32 33 34 34 33 33 33 33 34 35 35 36 36 37 38 38 38 38 37 36 35 34 35 35 36 37 37 37 37 37 37 37 36 35 36 38 39 39 40 42 43 45 48 50 50 50 49 47 48 49 48 47 47 46 44 45 46 44 39 36 38 39 37 40 43 42 41 40 39 41 43 43 40 39 39 38
27 26 26 26 27 28 29 30 31 33 35 35 35 34 34 34 34 35 36 36 37 37 37 38 38 39 39 38 38 37 36 36 37 38 39 39 39 40 40 40 40 40 39 38 38 39 39 39 41 43 46 48 50 51 50 48 48 48 49 48 48 47 45 45 47 47 46 43 38 38 41 40 38 40 43 43 40 39 40 41 41 41 43 43 40
29 28 27 28 28 28 29 30 32 34 35 35 35 35 35 35 35 35 36 37 37 38 38 38 38 38 39 39 39 39 39 39 39 39 39 40 41 42 42 43 43 43 43 42 42 42 40 40 41 44 46 47 48 50 49 47 47 47 47 46 46 47 48 50 50 49 47 46 41 39 43 43 41 43 44 42 39 40 41 42 42 44 46 45 40
32 31 29 29 29 28 28 29 30 32 33 33 34 34 34 34 34 35 36 36 37 38 38 38 38 38 39 39 40 41 41 41 40 40 40 41 42 43 44 44 44 45 45 45 45 44 40 39 41 45 46 47 46 47 47 47 47 48 48 47 46 49 51 52 52 51 51 51 47 42 43 45 46 46 44 40 38 39 39 40 42 45 45 43 39
34 33 32 30 29 29 29 29 29 31 31 32 32 33 33 33 33 34 35 35 36 37 38 38 38 38 38 39 39 40 41 42 41 41 40 41 41 43 44 45 45 46 47 47 46 44 41 40 43 44 46 47 46 45 45 45 45 45 46 46 46 47 48 48 48 51 52 51 50 47 46 46 47 47 43 40 39 39 39 40 41 42 43 42 39
34 33 32 31 30 29 29 28 29 30 31 31 31 32 32 32 32 33 33 34 35 35 36 37 37 37 38 38 39 39 40 41 41 41 40 40 41 42 44 45 46 47 49 49 46 44 43 44 44 43 43 45 46 46 44 44 44 42 41 44 46 47 47 46 48 51 51 51 50 48 47 48 48 46 43 41 40 41 41 41 42 43 43 42 39
34 32 31 30 30 29 28 27 27 28 29 29 30 30 31 31 32 32 33 33 34 34 35 35 35 36 36 37 38 38 39 40 41 40 38 36 37 39 40 42 45 49 51 49 47 46 46 45 44 43 44 44 45 46 45 44 43 41 42 46 47 47 47 48 50 51 50 50 52 49 47 48 46 43 41 40 41 42 43 43 43 44 43 40 36
34 32 29 27 27 27 26 26 25 26 27 27 27 27 28 29 30 30 31 32 33 33 34 34 35 35 35 35 36 37 38 39 40 39 37 35 35 37 37 38 42 48 50 48 47 47 47 47 46 46 46 46 46 45 44 44 44 44 46 47 49 52 54 53 53 50 46 49 53 49 45 46 44 43 43 41 40 42 43 44 43 43 41 38 36
Wind_Direction
261 261 263 263 264 264 263 262 263 264 265 267 270 272 275 276 277 277 277 277 276 275 274 274 275 276 278 278 279 281 282 282 282 283 283 283 283 282 279 277 275 274 274 273 273 272 272 272 272 271 271 271 271 272 272 271 271 272 273 274 275 276 278 279 281 282 284 284 283 281 279 279 278 276 273 268 265 260 258 262 267 270 273 273 275
261 261 262 263 264 263 262 262 262 263 265 266 269 272 274 276 277 277 277 277 276 276 275 275 276 277 279 280 281 283 284 284 285 284 284 284 283 282 281 278 277 276 275 274 273 272 272 271 272 272 272 272 273 273 273 273 273 273 274 275 275 276 277 278 279 281 282 284 284 283 282 280 279 279 278 275 271 266 260 256 257 261 266 268 271
258 259 259 260 260 260 260 261 262 262 264 266 269 271 272 273 274 274 275 274 273 273 273 275 276 277 279 280 282 283 283 284 285 285 285 284 283 282 281 279 277 276 275 274 274 273 272 271 271 271 271 273 274 274 275 275 276 276 276 277 277 278 278 278 279 280 281 282 283 283 283 282 281 280 279 279 277 275 270 261 255 254 257 261 264
255 256 256 256 256 258 259 260 262 264 266 268 269 270 270 269 269 271 271 272 271 270 272 274 274 276 277 279 280 281 282 283 283 283 283 282 282 281 280 278 277 276 275 274 274 274 274 273 273 272 272 273 274 275 276 277 277 277 277 277 277 278 278 278 279 279 280 280 281 281 281 281 281 281 279 279 279 279 276 270 264 257 254 255 258
252 254 255 256 257 258 260 262 265 268 270 271 270 269 269 268 268 269 269 270 270 270 271 272 273 275 276 278 279 280 282 282 282 282 282 281 280 280 279 279 278 276 276 275 275 275 275 276 277 277 277 276 276 276 277 278 278 278 278 278 278 277 277 278 278 279 280 281 281 281 281 280 280 280 279 278 278 281 280 278 276 270 260 255 255
252 255 257 258 260 261 263 266 270 273 273 273 272 271 271 270 270 269 269 269 270 271 272 272 273 276 277 278 279 280 281 281 281 281 280 280 279 279 279 279 279 279 279 279 279 280 280 281 281 281 281 280 280 279 278 278 278 279 279 280 280 280 280 280 280 281 281 282 282 282 281 281 281 280 279 278 276 277 279 279 280 279 275 266 259
253 256 258 260 261 262 264 267 270 272 273 273 273 272 272 272 272 272 272 272 272 273 273 274 274 275 276 278 279 279 280 279 279 279 278 279 278 278 279 279 279 280 281 282 283 283 283 283 283 283 283 283 282 281 280 280 279 279 280 281 281 282 283 283 282 282 283 283 283 283 282 282 281 280 278 277 276 276 276 277 279 281 281 278 270
255 258 260 262 263 264 266 268 271 272 272 273 272 272 272 273 273 274 274 274 274 274 273 274 275 275 277 277 278 279 278 277 277 277 277 277 276 277 278 280 281 282 283 284 284 284 284 283 282 282 281 281 281 281 282 281 282 282 282 282 283 284 284 284 284 283 284 284 283 282 282 282 281 279 277 276 275 275 275 274 274 274 276 276 275
258 261 263 265 266 268 269 270 271 271 271 271 271 271 272 273 273 273 274 275 275 275 275 277 278 278 278 277 278 278 277 276 276 277 276 276 276 278 280 282 283 284 285 286 286 286 285 284 283 282 281 280 280 280 281 281 282 282 283 283 283 284 284 284 284 284 285 285 284 284 282 281 281 280 278 276 274 273 273 273 272 272 273 274 273
262 264 265 267 268 270 271 271 271 271 271 271 270 271 271 271 272 272 274 276 277 278 281 283 283 283 281 280 279 277 276 276 275 275 275 276 278 280 282 283 283 284 286 287 288 288 288 288 287 285 283 282 282 281 281 282 282 282 283 282 282 282 283 283 283 284 285 284 284 284 282 281 280 280 279 278 277 275 274 273 272 272 273 275 276
265 266 267 268 269 270 270 271 272 272 271 271 270 271 272 273 274 276 277 279 280 281 283 285 285 284 282 281 279 278 277 276 275 275 275 277 280 282 282 282 282 282 284 286 287 288 289 291 289 287 284 283 283 284 284 284 285 285 285 284 283 282 282 282 282 282 282 282 282 282 281 280 279 280 280 280 279 278 276 274 273 271 269 271 273
266 267 269 269 269 270 270 270 270 270 270 270 271 273 274 275 276 277 278 278 279 280 283 286 286 285 283 283 282 281 279 278 277 277 277 278 280 281 281 280 280 280 281 283 284 284 286 289 289 287 284 284 285 284 284 285 287 289 288 288 287 286 284 283 281 280 279 280 281 281 281 282 282 282 282 282 280 279 277 275 274 272 270 269 267
270 271 272 272 272 272 272 271 270 270 271 271 273 274 275 276 277 278 278 278 279 281 283 286 287 286 287 288 286 282 281 281 280 279 279 279 280 280 279 279 278 277 279 280 279 279 282 286 287 286 285 284 285 283 282 283 285 288 289 289 288 288 286 284 282 280 280 281 282 282 283 284 285 285 285 284 282 280 278 277 275 275 275 273 268
278 279 279 278 277 277 276 275 275 275 275 275 275 276 276 277 278 279 280 281 281 282 283 284 285 287 291 293 289 285 283 282 281 281 281 281 281 281 280 279 278 277 277 276 276 275 277 281 283 284 285 284 284 283 281 282 283 285 286 286 286 286 284 283 282 281 282 283 283 284 284 284 285 285 285 283 281 279 278 278 278 278 278 276 273
285 285 284 282 281 281 281 280 280 280 279 279 278 278 278 279 280 281 282 283 282 282 283 284 285 287 289 290 291 291 289 286 284 284 285 285 284 283 282 281 279 278 276 274 274 273 273 277 279 281 284 284 284 283 282 282 282 281 282 282 282 282 282 281 281 281 282 283 283 284 284 284 285 284 283 282 280 278 278 278 277 276 276 275 273
289 288 287 286 284 284 284 284 285 285 284 283 282 282 282 282 282 283 283 283 283 283 284 285 285 283 281 281 285 290 289 289 290 288 285 285 285 284 284 283 281 279 277 275 274 272 273 275 277 280 283 284 284 284 284 283 282 280 279 280 279 279 280 280 280 280 281 282 282 283 284 285 286 285 283 281 279 278 277 276 274 273 272 272 271
286 287 288 289 287 286 286 287 287 287 287 286 286 285 284 283 284 285 285 285 285 286 285 283 283 281 277 274 275 276 279 288 294 291 287 285 284 284 284 283 282 279 277 276 274 274 275 276 277 280 281 283 285 286 286 286 283 281 279 278 278 277 277 277 278 279 279 280 281 282 283 285 286 285 283 280 279 277 275 273 270 268 268 269 269
283 285 288 289 289 289 288 289 289 289 288 287 286 285 284 284 285 286 285 286 287 285 282 281 281 280 278 277 275 275 278 284 289 290 291 289 285 282 282 281 280 279 278 278 277 277 277 278 278 279 280 282 285 287 287 287 285 283 281 279 277 276 275 275 276 277 278 279 280 281 282 285 285 284 281 278 277 276 273 271 268 266 264 262 262
282 284 286 288 288 288 288 289 289 289 289 287 286 285 285 286 285 284 284 285 284 281 281 280 279 278 279 281 281 282 282 281 280 284 291 292 289 285 282 280 281 281 281 280 281 281 280 280 280 280 281 282 284 285 286 286 286 285 284 281 278 275 274 274 274 275 277 277 279 280 282 284 284 281 278 275 274 273 271 269 267 265 262 259 258
282 283 285 286 286 287 288 288 288 288 288 288 287 287 286 285 283 282 282 282 282 282 282 280 278 279 281 282 283 284 284 281 279 279 280 284 288 290 289 288 287 285 284 284 284 285 284 283 282 281 281 281 281 283 284 285 285 285 284 283 280 276 273 272 272 273 274 276 277 279 281 282 282 279 277 275 273 270 266 266 265 261 258 257 257
282 282 283 284 284 285 286 286 286 287 287 287 286 285 284 283 283 283 282 282 282 283 282 280 279 280 281 281 282 283 283 282 281 278 274 275 282 289 293 295 294 291 289 288 287 287 288 286 285 283 281 281 281 282 284 284 284 283 283 284 282 277 273 270 269 270 271 273 275 277 279 280 279 277 276 274 272 269 264 262 262 259 255 252 252
281 282 282 283 283 284 285 285 285 285 284 284 283 282 282 282 283 283 283 282 282 282 282 282 281 281 280 280 279 278 278 278 277 277 275 272 276 283 290 294 295 295 295 294 292 291 290 288 287 285 283 282 283 283 283 283 283 283 284 285 283 279 274 269 267 267 268 269 272 275 276 278 277 276 275 273 271 267 262 259 259 258 255 250 247
279 279 279 280 282 283 283 284 283 283 281 281 281 281 281 282 282 282 282 282 282 282 282 281 281 280 280 279 278 277 276 275 275 275 274 272 273 279 284 289 292 293 296 298 298 297 294 292 289 286 285 285 284 283 283 284 285 286 287 287 285 280 274 269 266 265 266 267 270 272 274 274 275 273 273 273 269 264 258 255 255 256 255 251 246
274 275 275 278 281 283 283 283 282 281 281 280 280 279 279 279 279 279 280 281 281 281 281 280 280 280 280 279 279 279 277 276 277 276 273 273 274 277 280 284 286 289 294 297 298 299 299 297 294 292 291 289 286 284 285 287 289 291 292 291 288 281 272 266 264 263 264 265 267 269 271 272 272 271 272 273 269 262 256 252 252 251 251 250 245
274 275 276 278 279 279 279 278 277 277 278 278 278 278 279 279 278 279 279 279 280 281 280 281 281 281 281 281 280 279 278 278 279 278 276 276 274 275 278 280 281 285 292 295 296 298 299 299 298 299 298 295 292 289 290 292 294 294 296 296 292 284 274 266 261 261 260 262 264 265 268 269 269 270 271 271 267 260 255 252 249 248 248 247 245
277 277 277 276 274 274 275 275 276 277 277 277 278 278 278 278 278 278 278 279 280 280 280 281 281 281 281 280 280 279 279 279 279 278 277 276 273 273 277 279 279 282 286 290 293 294 296 298 299 300 301 301 299 298 298 299 298 298 299 298 296 289 279 270 262 259 258 259 261 263 264 265 266 268 267 267 264 257 253 252 250 251 250 249 247
279 279 278 276 275 275 276 276 276 276 275 275 275 274 274 274 274 275 275 277 277 278 279 280 280 281 281 280 280 280 280 279 278 277 276 275 274 274 275 276 279 282 284 286 288 288 291 296 299 300 302 303 303 303 303 303 302 302 300 298 298 292 282 273 266 261 260 259 261 261 262 262 263 265 264 263 261 253 250 251 252 253 252 250 247
278 278 278 278 278 278 277 275 275 273 272 272 271 271 272 271 272 273 273 274 275 276 277 278 279 279 280 280 280 280 280 280 279 277 277 276 275 276 274 272 274 278 283 286 286 287 290 294 296 298 301 302 304 305 304 304 304 303 301 299 298 294 282 273 268 263 262 262 261 261 260 260 261 263 263 262 258 251 249 250 252 253 250 249 250
278 279 279 279 279 279 278 278 277 275 273 273 272 272 272 272 272 273 273 274 274 274 275 276 277 278 279 279 280 280 281 281 280 278 278 277 276 276 275 274 272 273 276 281 284 286 289 291 291 294 298 301 303 304 302 302 303 302 301 300 299 296 285 272 267 264 262 261 260 259 259 258 259 261 262 260 253 248 250 251 253 254 252 253 256
275 276 276 276 276 277 278 279 279 279 279 279 279 278 277 276 275 275 276 276 274 274 275 275 276 277 278 279 279 280 281 280 280 279 279 278 278 277 276 277 274 270 271 275 280 284 287 288 289 291 295 299 300 301 300 300 302 302 302 301 300 299 291 275 266 263 263 261 260 259 257 257 258 258 260 258 248 244 248 252 254 256 258 260 261
271 272 272 272 273 275 277 279 281 282 284 284 284 284 282 281 280 280 280 278 277 276 277 277 277 278 279 279 280 280 281 281 281 280 279 279 279 278 278 277 275 273 272 271 275 281 284 284 287 289 292 296 297 298 299 299 300 301 301 301 301 300 297 284 269 263 262 263 263 262 260 258 257 256 256 253 245 242 244 248 252 255 259 263 262
272 272 273 274 275 275 277 279 280 282 283 283 284 284 284 284 284 284 283 281 279 279 279 279 280 280 280 281 282 283 283 282 281 280 279 280 280 279 279 278 277 275 274 269 269 278 283 283 285 288 289 292 295 295 296 297 298 299 299 299 300 300 299 295 280 266 261 261 262 263 262 259 257 255 253 250 243 240 241 244 247 250 252 256 258
274 275 276 277 277 277 277 276 277 276 276 277 278 279 281 283 285 286 286 285 282 282 282 282 282 283 284 285 285 287 287 283 282 281 280 280 280 279 278 277 277 276 273 269 267 275 282 284 284 286 287 289 292 293 294 295 296 296 297 297 298 299 298 299 292 275 262 259 259 259 259 258 258 256 252 250 244 237 237 239 242 245 246 250 255
279 279 280 281 282 283 282 280 277 273 271 271 273 277 280 283 285 286 287 287 285 284 283 282 283 283 285 286 287 289 288 285 283 282 280 280 279 278 279 277 277 277 274 271 269 272 279 284 284 285 286 287 289 291 292 293 294 296 296 295 296 297 297 298 298 286 267 258 255 254 255 256 259 261 259 255 247 237 235 239 244 250 253 255 257
285 286 287 289 289 288 289 287 283 278 276 277 279 283 286 287 287 286 286 286 284 283 282 281 282 283 283 284 285 288 290 289 287 286 284 283 280 278 279 278 277 279 277 274 272 271 276 282 284 283 284 287 289 291 292 293 294 295 295 295 295 296 294 294 297 293 275 261 254 250 251 253 256 262 267 263 251 240 240 245 251 257 261 262 261
286 288 289 291 292 292 292 291 288 286 285 286 289 291 292 292 290 288 286 285 283 281 281 280 280 281 281 282 283 287 290 289 289 290 289 288 285 281 280 279 277 277 278 277 275 274 275 279 283 283 284 287 289 290 291 290 292 293 293 294 294 293 292 292 296 295 282 268 259 249 246 250 253 257 263 264 256 247 246 251 255 259 261 263 263
285 287 289 290 292 293 293 293 291 290 290 290 292 293 294 293 291 290 287 285 282 280 280 280 279 280 280 280 282 284 285 285 286 288 290 290 290 286 284 283 280 279 281 280 278 277 275 276 282 284 285 285 287 289 288 287 288 290 290 291 291 291 291 291 293 294 287 276 268 256 246 246 250 252 254 256 257 255 255 257 260 263 265 265 265
286 289 291 293 294 294 294 294 293 292 291 290 291 292 292 291 289 288 286 284 282 280 279 279 279 280 281 281 282 283 283 283 284 285 287 288 288 287 285 286 285 282 281 280 278 277 276 276 279 282 283 283 283 285 286 286 286 287 287 288 289 287 287 288 289 291 290 282 276 268 255 248 248 249 250 252 253 254 257 260 263 266 268 268 267
285 288 291 293 295 296 295 295 293 292 291 290 290 289 288 288 286 284 283 282 281 280 279 280 280 280 281 281 282 283 283 283 284 285 286 286 287 286 285 285 285 282 280 280 279 277 275 275 275 277 279 281 281 282 285 285 283 283 282 282 282 284 284 285 287 289 289 283 275 272 267 258 252 249 249 250 250 251 255 258 260 264 268 269 268
288 289 291 292 293 294 295 296 295 294 292 290 290 289 288 286 284 283 282 281 280 280 279 279 279 280 281 281 282 283 284 284 285 286 286 287 287 287 286 285 283 281 279 279 279 277 274 274 274 275 277 279 280 281 281 279 276 278 279 278 281 285 284 285 286 287 289 284 273 271 271 265 258 254 251 251 250 251 253 255 257 261 265 268 269
289 289 290 291 292 293 293 294 294 294 292 291 290 290 289 287 286 284 282 281 280 279 279 278 278 278 279 280 281 283 284 285 285 286 286 286 287 286 287 287 284 281 279 277 277 277 275 274 273 275 276 276 277 277 275 274 276 278 280 279 281 283 284 286 288 287 286 281 272 274 274 265 259 257 255 254 253 252 252 253 255 257 261 267 267
288 289 290 291 291 292 292 292 293 292 290 289 289 288 287 286 285 284 283 282 281 280 280 279 279 279 279 280 281 282 283 284 284 285 286 285 285 284 284 285 283 282 280 277 275 274 274 274 273 274 273 273 274 275 274 276 277 277 278 277 278 281 281 282 284 285 282 273 268 276 276 265 259 258 256 259 258 253 252 253 252 252 259 266 263
288 289 290 290 291 291 292 291 291 290 288 286 286 284 283 283 282 282 281 281 280 280 280 280 280 280 280 281 282 283 284 285 285 286 286 285 285 283 282 282 280 279 278 276 275 272 270 270 272 273 272 272 276 276 274 275 275 274 276 276 276 277 276 275 277 280 277 271 272 279 276 267 260 256 256 264 263 255 254 255 252 252 260 263 261
284 285 285 287 289 290 291 291 290 288 285 285 284 283 283 283 282 281 280 280 280 279 279 280 281 282 282 282 283 283 284 286 287 288 288 288 287 286 284 283 281 278 276 273 273 273 270 268 267 268 269 270 273 274 274 273 273 274 275 275 274 273 272 271 272 273 274 276 280 278 274 270 261 253 258 267 264 257 258 256 252 253 257 257 258
282 282 282 283 285 287 288 290 290 287 285 284 284 284 284 283 282 282 281 280 280 280 280 281 281 282 284 285 285 284 284 286 288 290 290 290 289 288 286 285 283 281 279 276 274 273 272 269 267 267 270 269 268 270 272 272 274 277 275 272 272 271 269 269 271 273 276 279 279 274 271 271 262 255 262 267 263 261 262 257 252 253 255 254 256
286 285 284 283 283 284 285 286 287 286 285 285 285 285 284 283 283 282 281 281 281 281 281 282 283 284 285 287 288 287 287 289 290 292 292 291 290 289 288 286 285 284 283 281 280 277 274 271 269 270 275 274 270 272 274 271 272 274 274 273 273 271 271 272 274 276 276 274 273 269 267 266 261 257 262 266 265 265 262 255 252 253 255 254 254
292 292 291 290 288 287 287 286 286 285 285 286 286 285 284 284 283 282 282 281 281 281 282 284 285 286 287 289 290 290 290 291 292 293 293 292 291 290 289 288 287 286 284 283 283 282 279 275 273 274 277 277 274 274 275 271 267 267 268 272 274 272 271 272 271 270 269 268 266 262 259 260 259 255 258 266 269 266 260 254 254 256 255 251 251
295 295 295 294 293 292 291 290 290 289 288 288 287 287 286 286 285 284 283 282 282 281 282 284 285 286 287 288 289 289 289 290 292 293 293 292 292 291 290 289 289 288 286 284 284 283 280 277 276 275 276 279 278 276 275 273 270 268 267 269 270 269 268 267 265 264 264 264 263 258 254 255 256 255 258 266 268 265 260 256 256 256 250 246 250
297 297 297 296 295 294 293 292 292 291 290 289 289 289 289 289 288 287 285 284 284 283 283 283 284 285 286 286 287 287 288 288 289 291 292 293 292 292 291 290 289 288 286 286 286 285 282 280 278 275 275 276 276 276 275 273 272 272 270 268 267 266 266 265 264 264 264 264 263 259 253 251 252 254 258 264 265 263 260 258 256 253 246 244 249
300 299 298 297 294 293 293 293 292 290 289 289 289 289 289 289 288 288 287 286 285 284 284 284 283 284 284 285 286 286 286 286 287 289 293 294 294 294 294 293 292 288 286 287 290 289 286 284 282 278 276 274 272 272 272 271 272 270 266 264 265 265 263 262 262 262 262 263 264 259 249 244 248 253 257 260 260 259 257 255 253 249 244 244 247
304 303 301 297 292 290 291 292 292 291 289 289 289 289 289 289 288 287 287 286 285 285 284 284 283 283 284 285 286 287 287 287 288 290 292 292 291 291 292 292 291 289 288 290 292 292 289 287 285 282 279 277 274 273 270 268 267 265 262 262 264 263 259 257 258 257 255 258 261 255 242 240 248 256 258 256 252 251 251 249 246 244 242 242 243